Weather History for Newberry, MI

Change the Weather History Date:

Saturday, November 10, 2012

  Actual Average Record
Temperature  
Mean Temperature 40 °F -  
Max Temperature 46 °F 40 °F 58 °F (1931)
Min Temperature 33 °F 27 °F 14 °F (1933)
Degree Days  
Heating Degree Days 26    
Moisture  
Dew Point 36 °F    
Average Humidity 92    
Maximum Humidity 100    
Minimum Humidity 81    
Precipitation  
Precipitation 0.00 in - - ()
Sea Level Pressure  
Sea Level Pressure 30.06 in    
Wind  
Wind Speed 8 mph (East)    
Max Wind Speed 21 mph    
Max Gust Speed 29 mph    
Visibility 7 miles    
Events Rain    
Averages and records for this station are not official NWS values.
T = Trace of Precipitation, MM = Missing Value Source: NWS Daily Summary

Daily Weather History Graph

Daily Weather History Graph

Search for Another Location

Airport:

Trip Planner

Search our weather history database for the weather conditions in past years. The results will help you decide how hot, cold, wet, or windy it might be!

Date:

Astronomy

Nov. 10, 2012 Rise Set
Actual Time 7:36 AM EST 5:14 PM EST
Civil Twilight 7:04 AM EST 5:46 PM EST
Nautical Twilight 6:28 AM EST 6:22 PM EST
Astronomical Twilight 5:53 AM EST 6:57 PM EST
Moon 3:29 AM EST (11/10) 3:10 PM EST (11/10)
Length of Visible Light 10h 42m
Length of Day
9h 37m
Waning Crescent, 14% of the Moon is Illuminated
Nov 10
Waning Crescent
Nov 13
New
Nov 20
First Quarter
Nov 28
Full
Dec 6
Last Quarter

Hourly Weather History & Observations

Time (EST) Temp. Windchill Dew Point Humidity Pressure Visibility Wind Dir Wind Speed Gust Speed Precip Events Conditions
12:15 AM 33.8 °F - 30.2 °F 87% 30.17 in 10.0 mi Calm Calm - N/A   Mostly Cloudy
12:34 AM 35.6 °F 32.8 °F 33.8 °F 93% 30.17 in 10.0 mi North 3.5 mph - N/A   Overcast
12:55 AM 37.4 °F 34.9 °F 33.8 °F 87% 30.17 in 10.0 mi NNE 3.5 mph - N/A   Overcast
1:14 AM 35.6 °F 32.8 °F 33.8 °F 93% 30.18 in 10.0 mi NE 3.5 mph - N/A   Overcast
1:34 AM 35.6 °F - 32.0 °F 87% 30.18 in 10.0 mi Calm Calm - N/A   Overcast
1:55 AM 33.8 °F - 32.0 °F 93% 30.18 in 10.0 mi Calm Calm - N/A   Overcast
2:14 AM 33.8 °F 28.6 °F 32.0 °F 93% 30.18 in 10.0 mi NE 5.8 mph - N/A   Overcast
2:34 AM 35.6 °F 29.2 °F 33.8 °F 93% 30.19 in 10.0 mi ENE 8.1 mph - N/A   Overcast
2:55 AM 35.6 °F 29.2 °F 33.8 °F 93% 30.18 in 10.0 mi NE 8.1 mph - N/A   Overcast
3:14 AM 35.6 °F 30.7 °F 33.8 °F 93% 30.19 in 10.0 mi ENE 5.8 mph - N/A   Overcast
3:35 AM 35.6 °F 29.9 °F 33.8 °F 93% 30.18 in 10.0 mi NE 6.9 mph - N/A   Overcast
3:55 AM 35.6 °F 29.9 °F 33.8 °F 93% 30.18 in 10.0 mi ENE 6.9 mph - N/A   Overcast
4:14 AM 35.6 °F 29.9 °F 33.8 °F 93% 30.18 in 10.0 mi ENE 6.9 mph - N/A   Overcast
4:35 AM 35.6 °F 29.2 °F 33.8 °F 93% 30.18 in 10.0 mi ENE 8.1 mph - N/A   Overcast
4:55 AM 35.6 °F 28.6 °F 33.8 °F 93% 30.18 in 10.0 mi ENE 9.2 mph - N/A   Overcast
5:14 AM 35.6 °F 27.5 °F 32.0 °F 87% 30.17 in 10.0 mi ENE 11.5 mph - N/A   Overcast
5:35 AM 35.6 °F 28.0 °F 32.0 °F 87% 30.18 in 10.0 mi ENE 10.4 mph - N/A   Overcast
5:54 AM 35.6 °F 28.6 °F 30.2 °F 81% 30.17 in 10.0 mi ENE 9.2 mph - N/A   Overcast
6:15 AM 35.6 °F 28.0 °F 30.2 °F 81% 30.16 in 10.0 mi ENE 10.4 mph - N/A   Overcast
6:34 AM 35.6 °F 27.5 °F 30.2 °F 81% 30.16 in 10.0 mi ENE 11.5 mph 17.3 mph N/A   Overcast
6:54 AM 33.8 °F 25.8 °F 30.2 °F 87% 30.16 in 10.0 mi East 10.4 mph - N/A   Overcast
7:15 AM 33.8 °F 27.0 °F 30.2 °F 87% 30.16 in 10.0 mi East 8.1 mph - N/A   Overcast
7:34 AM 33.8 °F 26.4 °F 30.2 °F 87% 30.16 in 10.0 mi East 9.2 mph - N/A   Overcast
7:54 AM 33.8 °F 25.3 °F 30.2 °F 87% 30.16 in 10.0 mi East 11.5 mph - N/A   Overcast
8:15 AM 35.6 °F 27.1 °F 30.2 °F 81% 30.16 in 10.0 mi East 12.7 mph 17.3 mph N/A   Overcast
8:34 AM 35.6 °F 27.1 °F 32.0 °F 87% 30.16 in 10.0 mi East 12.7 mph - N/A   Overcast
8:55 AM 35.6 °F 27.1 °F 32.0 °F 87% 30.15 in 10.0 mi East 12.7 mph 20.7 mph N/A   Overcast
9:14 AM 35.6 °F 27.1 °F 32.0 °F 87% 30.15 in 10.0 mi East 12.7 mph 17.3 mph N/A   Overcast
9:34 AM 35.6 °F 28.0 °F 33.8 °F 93% 30.15 in 10.0 mi East 10.4 mph 17.3 mph N/A   Overcast
9:55 AM 35.6 °F 27.5 °F 33.8 °F 93% 30.15 in 10.0 mi East 11.5 mph 20.7 mph N/A   Overcast
10:14 AM 35.6 °F 27.5 °F 33.8 °F 93% 30.14 in 10.0 mi East 11.5 mph 17.3 mph N/A   Overcast
10:35 AM 35.6 °F 28.0 °F 33.8 °F 93% 30.15 in 10.0 mi East 10.4 mph - N/A   Overcast
10:55 AM 35.6 °F 29.2 °F 33.8 °F 93% 30.15 in 10.0 mi East 8.1 mph - N/A Rain Rain
11:14 AM 35.6 °F 28.0 °F 33.8 °F 93% 30.13 in 7.0 mi East 10.4 mph - N/A Rain Rain
11:35 AM 37.4 °F 29.8 °F 35.6 °F 93% 30.13 in 7.0 mi East 11.5 mph - N/A   Drizzle
11:54 AM 37.4 °F 28.9 °F 35.6 °F 93% 30.11 in 10.0 mi East 13.8 mph 19.6 mph N/A Rain Light Rain
12:14 PM 37.4 °F 30.3 °F 35.6 °F 93% 30.09 in 5.0 mi East 10.4 mph 17.3 mph N/A Rain Light Rain
12:35 PM 37.4 °F 29.8 °F 35.6 °F 93% 30.08 in 7.0 mi East 11.5 mph - N/A Rain Light Rain
12:54 PM 37.4 °F 28.5 °F 35.6 °F 93% 30.07 in 7.0 mi East 15.0 mph 20.7 mph N/A Rain Light Rain
1:14 PM 37.4 °F 29.3 °F 35.6 °F 93% 30.06 in 4.0 mi East 12.7 mph 21.9 mph N/A Rain Rain
1:35 PM 37.4 °F 28.5 °F 35.6 °F 93% 30.05 in 2.5 mi East 15.0 mph 24.2 mph N/A Rain Rain
1:54 PM 37.4 °F 29.3 °F 35.6 °F 93% 30.04 in 2.5 mi East 12.7 mph 18.4 mph N/A Rain Rain
2:15 PM 37.4 °F 28.2 °F 35.6 °F 93% 30.01 in 2.5 mi ESE 16.1 mph 19.6 mph N/A Rain Light Rain
2:35 PM 37.4 °F 26.9 °F 35.6 °F 93% 29.99 in 3.0 mi ESE 20.7 mph 27.6 mph N/A Rain Light Rain
2:54 PM 37.4 °F 28.9 °F 35.6 °F 93% 30.00 in 7.0 mi ESE 13.8 mph 25.3 mph N/A   Overcast
3:15 PM 37.4 °F 28.2 °F 35.6 °F 93% 29.99 in 10.0 mi ESE 16.1 mph 20.7 mph N/A Rain Light Rain
3:34 PM 37.4 °F 28.5 °F 35.6 °F 93% 29.98 in 5.0 mi ESE 15.0 mph 25.3 mph N/A Rain Light Rain
3:54 PM 37.4 °F 28.2 °F 35.6 °F 93% 29.97 in 7.0 mi East 16.1 mph 24.2 mph N/A Rain Rain
4:15 PM 37.4 °F 28.9 °F 35.6 °F 93% 29.97 in 2.5 mi East 13.8 mph 21.9 mph N/A Rain Light Rain
4:34 PM 37.4 °F 28.5 °F 35.6 °F 93% 29.96 in 3.0 mi ESE 15.0 mph 21.9 mph N/A   Overcast
4:54 PM 37.4 °F 27.2 °F 37.4 °F 100% 29.95 in 4.0 mi ESE 19.6 mph 25.3 mph N/A   Overcast
5:15 PM 39.2 °F 29.3 °F 37.4 °F 93% 29.93 in 10.0 mi ESE 20.7 mph 28.8 mph N/A Rain Light Rain
5:55 PM 39.2 °F 30.5 °F 37.4 °F 93% 29.92 in 7.0 mi ESE 16.1 mph 27.6 mph N/A   Overcast
6:15 PM 39.2 °F 29.8 °F 39.2 °F 100% 29.92 in 5.0 mi ESE 18.4 mph 23.0 mph N/A   Overcast
6:34 PM 41.0 °F 32.2 °F 39.2 °F 93% 29.91 in 3.0 mi ESE 18.4 mph 26.5 mph N/A   Overcast
6:55 PM 41.0 °F 32.8 °F 39.2 °F 93% 29.91 in 2.5 mi SE 16.1 mph 25.3 mph N/A   Overcast
7:14 PM 42.8 °F 34.8 °F 39.2 °F 87% 29.91 in 4.0 mi SE 17.3 mph 23.0 mph N/A   Overcast
7:34 PM 42.8 °F 34.3 °F 41.0 °F 93% 29.90 in 5.0 mi ESE 19.6 mph 25.3 mph N/A   Overcast
7:55 PM 42.8 °F 36.6 °F 42.8 °F 100% 29.90 in 4.0 mi ESE 11.5 mph 18.4 mph N/A   Overcast
8:14 PM 44.6 °F 39.2 °F 42.8 °F 93% 29.91 in 4.0 mi SE 10.4 mph 18.4 mph N/A   Overcast
8:34 PM 44.6 °F 40.7 °F 42.8 °F 93% 29.91 in 3.0 mi ESE 6.9 mph - N/A   Overcast
8:54 PM 44.6 °F 39.2 °F 42.8 °F 93% 29.91 in 3.0 mi ESE 10.4 mph - N/A   Overcast
9:14 PM 44.6 °F 39.7 °F 42.8 °F 93% 29.89 in 2.5 mi East 9.2 mph - N/A   Overcast
9:35 PM 44.6 °F 38.8 °F 44.6 °F 100% 29.89 in 2.0 mi ESE 11.5 mph - N/A   Overcast
9:54 PM 46.4 °F 41.5 °F 44.6 °F 93% 29.88 in 2.0 mi ESE 10.4 mph - N/A   Overcast
10:35 PM 46.4 °F 42.4 °F 44.6 °F 93% 29.86 in 2.0 mi ESE 8.1 mph - N/A   Overcast
10:54 PM 46.4 °F 41.9 °F 44.6 °F 93% 29.86 in 2.0 mi SE 9.2 mph - N/A   Overcast
11:15 PM 46.4 °F 42.9 °F 46.4 °F 100% 29.86 in 2.0 mi ESE 6.9 mph - N/A   Overcast
11:34 PM 46.4 °F 42.9 °F 46.4 °F 100% 29.86 in 2.5 mi SE 6.9 mph - N/A   Overcast
11:54 PM 46.4 °F 43.5 °F 44.6 °F 93% 29.87 in 1.8 mi ESE 5.8 mph - N/A   Overcast